TimeAKDT,TemperatureF,Dew PointF,Humidity,Sea Level PressureIn,VisibilityMPH,Wind Direction,Wind SpeedMPH,Gust SpeedMPH,PrecipitationIn,Events,Conditions,WindDirDegrees,DateUTC
12:24 AM,48.2,46.4,93,30.34,10.0,Calm,Calm,-,N/A,,Overcast,0,2012-10-07 08:24:00
12:54 AM,48.0,46.9,96,30.35,10.0,Calm,Calm,-,N/A,,Overcast,0,2012-10-07 08:54:00
1:32 AM,48.2,46.4,93,30.33,10.0,Calm,Calm,-,N/A,,Overcast,0,2012-10-07 09:32:00
1:47 AM,48.2,46.4,93,30.34,10.0,Calm,Calm,-,N/A,,Overcast,0,2012-10-07 09:47:00
1:54 AM,48.0,46.9,96,30.35,10.0,Calm,Calm,-,N/A,,Overcast,0,2012-10-07 09:54:00
2:54 AM,48.0,46.9,96,30.34,10.0,East,3.5,-,N/A,,Overcast,100,2012-10-07 10:54:00
3:54 AM,48.0,46.9,96,30.34,10.0,Calm,Calm,-,N/A,,Overcast,0,2012-10-07 11:54:00
4:07 AM,48.2,46.4,93,30.33,10.0,Calm,Calm,-,N/A,,Overcast,0,2012-10-07 12:07:00
4:28 AM,48.2,46.4,93,30.33,10.0,Calm,Calm,-,N/A,,Overcast,0,2012-10-07 12:28:00
4:49 AM,46.4,46.4,100,30.33,10.0,Calm,Calm,-,N/A,,Overcast,0,2012-10-07 12:49:00
4:54 AM,46.9,46.9,100,30.34,10.0,Calm,Calm,-,N/A,,Overcast,0,2012-10-07 12:54:00
4:59 AM,46.4,46.4,100,30.34,10.0,Calm,Calm,-,N/A,,Overcast,0,2012-10-07 12:59:00
5:11 AM,46.4,46.4,100,30.34,1.8,Calm,Calm,-,N/A,,Overcast,0,2012-10-07 13:11:00
5:21 AM,46.4,46.4,100,30.34,3.0,WNW,3.5,-,N/A,,Overcast,290,2012-10-07 13:21:00
5:54 AM,48.0,46.9,96,30.34,10.0,West,5.8,-,N/A,,Overcast,280,2012-10-07 13:54:00
6:54 AM,46.9,45.0,93,30.33,10.0,NW,3.5,-,N/A,,Overcast,310,2012-10-07 14:54:00
7:38 AM,46.4,46.4,100,30.33,10.0,Calm,Calm,-,N/A,,Overcast,0,2012-10-07 15:38:00
7:54 AM,46.9,46.0,97,30.35,10.0,WNW,4.6,-,N/A,,Overcast,290,2012-10-07 15:54:00
8:42 AM,46.4,44.6,93,30.34,10.0,NW,4.6,-,N/A,,Overcast,310,2012-10-07 16:42:00
8:54 AM,46.9,46.0,97,30.35,10.0,West,4.6,-,N/A,,Overcast,280,2012-10-07 16:54:00
9:54 AM,48.0,46.9,96,30.35,10.0,WNW,8.1,-,N/A,,Overcast,300,2012-10-07 17:54:00
10:20 AM,50.0,46.4,87,30.35,10.0,WNW,6.9,-,N/A,,Overcast,290,2012-10-07 18:20:00
10:54 AM,50.0,46.9,89,30.35,10.0,WNW,5.8,-,N/A,,Overcast,300,2012-10-07 18:54:00
11:49 AM,50.0,46.4,87,30.33,10.0,SE,3.5,-,N/A,,Overcast,130,2012-10-07 19:49:00
11:54 AM,50.0,46.9,89,30.34,10.0,SSE,3.5,-,N/A,,Overcast,150,2012-10-07 19:54:00
12:54 PM,51.1,46.9,86,30.33,10.0,South,3.5,-,N/A,,Overcast,180,2012-10-07 20:54:00
1:54 PM,51.1,46.9,86,30.31,10.0,SSE,5.8,-,N/A,,Overcast,150,2012-10-07 21:54:00
2:54 PM,53.1,46.9,80,30.30,10.0,South,3.5,-,N/A,,Overcast,180,2012-10-07 22:54:00
3:54 PM,52.0,46.9,83,30.28,10.0,SE,5.8,-,N/A,,Mostly Cloudy,140,2012-10-07 23:54:00
4:07 PM,51.8,46.4,82,30.26,10.0,SE,6.9,-,N/A,,Scattered Clouds,130,2012-10-08 00:07:00
4:54 PM,51.1,45.0,80,30.27,10.0,ESE,8.1,-,N/A,,Clear,120,2012-10-08 00:54:00
5:54 PM,48.0,45.0,89,30.26,10.0,Calm,Calm,-,N/A,,Clear,0,2012-10-08 01:54:00
6:54 PM,46.9,45.0,93,30.26,10.0,ENE,3.5,-,N/A,,Scattered Clouds,70,2012-10-08 02:54:00
7:02 PM,46.4,44.6,93,30.25,10.0,Calm,Calm,-,N/A,,Mostly Cloudy,0,2012-10-08 03:02:00
7:16 PM,46.4,44.6,93,30.24,10.0,East,3.5,-,N/A,,Scattered Clouds,80,2012-10-08 03:16:00
7:54 PM,46.0,45.0,96,30.25,10.0,Calm,Calm,-,N/A,,Scattered Clouds,0,2012-10-08 03:54:00
8:11 PM,44.6,44.6,100,30.24,10.0,Calm,Calm,-,N/A,,Mostly Cloudy,0,2012-10-08 04:11:00
8:54 PM,46.0,45.0,96,30.25,10.0,Calm,Calm,-,N/A,,Overcast,0,2012-10-08 04:54:00
9:54 PM,46.0,45.0,96,30.24,10.0,Calm,Calm,-,N/A,,Overcast,0,2012-10-08 05:54:00
10:54 PM,46.9,45.0,93,30.24,10.0,Calm,Calm,-,N/A,,Overcast,0,2012-10-08 06:54:00
11:54 PM,46.9,45.0,93,30.23,10.0,Calm,Calm,-,N/A,,Overcast,0,2012-10-08 07:54:00